Weather Roundup
Issued by NWS Corpus Christi, TX

Home | Current Version | Previous Version | Text Only | Print | Product List | Glossary On
Versions: 1 2 3 4 5 6 7 8 9 10 11 12 13 14 15 16 17 18 19 20 21 22 23 24 25 26 27 28 29 30 31 32 33 34 35 36 37 38 39 40 41 42 43 44 45 46 47 48 49 50
000
ASUS44 KCRP 281810
HRRCRP

SOUTH TEXAS REGIONAL WEATHER ROUNDUP
NATIONAL WEATHER SERVICE CORPUS CHRISTI TX
100 PM CDT TUE APR 28 2015


TXZ229>244-281900-
...CORPUS CHRISTI AREA OBSERVATIONS...

CITY           SKY/WX    TMP DP  RH WIND       PRES   REMARKS
CORPUS CHRISTI MOSUNNY   72  54  53 NW21G29   29.96F
NAS CORPUS CHR MOSUNNY   73  55  53 NW22G28   29.95F
ROCKPORT       CLOUDY    75  55  49 NW17      29.93F
KINGSVILLE NAS MOSUNNY   75  53  46 NW20G29   29.97F
ALICE          SUNNY     74  49  41 NW20G28   29.98F
FALFURRIAS     SUNNY     72  47  40 NW20G26   29.98F
$$

...VICTORIA AREA OBSERVATIONS...

CITY           SKY/WX    TMP DP  RH WIND       PRES   REMARKS
VICTORIA       CLOUDY    69  57  65 NW15G21   29.95F
BEEVILLE       FAIR      71  53  52 NW12G22   29.98S
PLEASANTON     PTSUNNY   69  52  54 NW18G26   30.03R
SAN ANTONIO    CLOUDY    61  51  70 NW21G30   30.04R
$$

...LAREDO AREA OBSERVATIONS...

CITY           SKY/WX    TMP DP  RH WIND       PRES   REMARKS
LAREDO         SUNNY     72  45  37 NW20G32   30.06F
COTULLA        CLOUDY    69  48  47 NW22G30   30.05S
DEL RIO        CLOUDY    65  43  44 NW20G28   30.13S
MCALLEN        SUNNY     78  48  34 NW21G30   29.99S
HEBBRONVILLE     N/A     70  45  40 NW22G30   30.03S
$$

...OTHER TEXAS OBSERVATIONS...

CITY           SKY/WX    TMP DP  RH WIND       PRES   REMARKS
BROWNSVILLE    CLOUDY    75  53  46 NW16G25   29.95S
HOUSTON        CLOUDY    69  59  70 N15       29.91S
COL. STATION   CLOUDY    58  55  90 N13       29.98S
AUSTIN         CLOUDY    59  52  77 N15       30.02R
WACO           CLOUDY    55  51  86 N15       30.04S
FORT WORTH     DRIZZLE   54  49  83 N16G23    30.07F
WICHITA FALLS  CLOUDY    56  46  69 N15       30.15F
LUBBOCK        CLOUDY    53  40  61 NE16G22   30.22F
EL PASO        MOSUNNY   63  -9   5 W5        30.25F
$$

...MARINE OBSERVATIONS...

STATION/POSITION TIME  SKY/WX   TEMP    WIND        PRES    VSBY  WAVE   SWELL
                                AIR SEA DIR/SP/G                  HT/PER HT/PER
                 (UTC)          (F)     (DEG/KT/KT) (MB)    (MI)  (FT/S) (FT/S)
PORT ARANSAS     1800            71 76  310/ 15/ 18 1014.1F
BUOY 90 E PORT A 1750            72 76  330/ 16/ 19 1011.6F         5/ 7
BUOY 45 SE BAFFI 1750            69 75  320/ 21/ 27 1012.6R         6/ 5   2/11
BUOY 200 E PT IS 1750            78 78  360/ 19/ 23 1007.9R         5/ 6
BUOY 15 E GALVES 1750            68 74  350/ 12/ 16 1011.2F         3/ 8   2/ 8
$$


USA.gov is the U.S. government's official web portal to all federal, state and local government web resources and services.